Weather History for Copper Mountain, CO

Change the Weather History Date:

Thursday, March 13, 2014

  Actual Average (KLXV) Record (KLXV)
Temperature  
Mean Temperature 24 °F -  
Max Temperature 30 °F 36 °F 59 °F (2008)
Min Temperature 17 °F 10 °F -10 °F (1988)
Degree Days  
Heating Degree Days 42 42  
Month to date heating degree days 559  
Since 1 July heating degree days 8269  
Cooling Degree Days 0 0  
Month to date cooling degree days 0  
Year to date cooling degree days 0  
Moisture  
Dew Point 4 °F    
Average Humidity 43    
Maximum Humidity 80    
Minimum Humidity 28    
Precipitation  
Precipitation 0.00 in 0.02 in 0.16 in (2011)
Month to date precipitation 0.36  
Year to date precipitation 1.68  
Sea Level Pressure  
Sea Level Pressure 30.13 in    
Wind  
Wind Speed 18 mph (WSW)    
Max Wind Speed 45 mph    
Max Gust Speed 54 mph    
Visibility 8 miles    
Events Snow    
T = Trace of Precipitation, MM = Missing Value Source: NWS Daily Summary

Daily Weather History Graph

Daily Weather History Graph

Search for Another Location

Airport:

Trip Planner

Search our weather history database for the weather conditions in past years. The results will help you decide how hot, cold, wet, or windy it might be!

Date:

Astronomy

Mar. 13, 2014 Rise Set
Actual Time 7:19 AM MDT 7:09 PM MDT
Civil Twilight 6:52 AM MDT 7:36 PM MDT
Nautical Twilight 6:21 AM MDT 8:07 PM MDT
Astronomical Twilight 5:49 AM MDT 8:39 PM MDT
Moon 4:38 PM MDT (3/13) 5:26 AM MDT (3/13)
Length of Visible Light 12h 44m
Length of Day
11h 50m
Waxing Gibbous, 92% of the Moon is Illuminated
Mar 13
Waxing Gibbous
Mar 16
Full
Mar 23
Last Quarter
Mar 30
New
Apr 7
First Quarter

Hourly Weather History & Observations

Time (MDT) Temp. Windchill Dew Point Humidity Pressure Visibility Wind Dir Wind Speed Gust Speed Precip Events Conditions
12:16 AM 24.8 °F - 3.2 °F 40% 30.27 in 10.0 mi North - - N/A   Clear
12:36 AM 23.0 °F 12.4 °F 3.2 °F 43% 30.27 in 10.0 mi South 10.4 mph - N/A   Clear
12:56 AM 23.0 °F 12.4 °F 1.4 °F 39% 30.26 in 10.0 mi SSW 10.4 mph - N/A   Clear
1:16 AM 23.0 °F 11.7 °F -4.0 °F 31% 30.26 in 10.0 mi South 11.5 mph - N/A   Clear
1:36 AM 23.0 °F - -4.0 °F 31% 30.25 in 10.0 mi North - - N/A   Clear
1:56 AM 23.0 °F 12.4 °F -4.0 °F 31% 30.25 in 10.0 mi South 10.4 mph - N/A   Clear
2:16 AM 23.0 °F 12.4 °F -5.8 °F 28% 30.25 in 10.0 mi South 10.4 mph - N/A   Clear
2:36 AM 23.0 °F 13.1 °F -5.8 °F 28% 30.24 in 10.0 mi SSW 9.2 mph - N/A   Clear
2:56 AM 23.0 °F 13.1 °F -5.8 °F 28% 30.24 in 10.0 mi SSW 9.2 mph - N/A   Clear
3:16 AM 23.0 °F 12.4 °F -5.8 °F 28% 30.23 in 10.0 mi SSW 10.4 mph 19.6 mph N/A   Clear
3:36 AM 23.0 °F 12.4 °F -4.0 °F 31% 30.22 in 10.0 mi SSW 10.4 mph 17.3 mph N/A   Clear
3:56 AM 23.0 °F 12.4 °F -4.0 °F 31% 30.21 in 10.0 mi SSW 10.4 mph 17.3 mph N/A   Clear
4:16 AM 23.0 °F 12.4 °F -4.0 °F 31% 30.21 in 10.0 mi SSW 10.4 mph 19.6 mph N/A   Clear
4:36 AM 23.0 °F 12.4 °F -4.0 °F 31% 30.21 in 10.0 mi SSW 10.4 mph - N/A   Clear
4:56 AM 23.0 °F 13.1 °F -4.0 °F 31% 30.20 in 10.0 mi SSW 9.2 mph 16.1 mph N/A   Clear
5:16 AM 19.4 °F 8.6 °F -5.8 °F 33% 30.20 in 10.0 mi WSW 9.2 mph - N/A   Clear
5:36 AM 19.4 °F 6.0 °F -4.0 °F 36% 30.19 in 10.0 mi WSW 13.8 mph - N/A   Clear
5:56 AM 19.4 °F 7.9 °F -4.0 °F 36% 30.19 in 10.0 mi WSW 10.4 mph - N/A   Clear
6:16 AM 19.4 °F 6.6 °F -4.0 °F 36% 30.19 in 10.0 mi WSW 12.7 mph 19.6 mph N/A   Clear
6:36 AM 19.4 °F 5.5 °F -4.0 °F 36% 30.18 in 10.0 mi West 15.0 mph 21.9 mph N/A   Clear
6:56 AM 17.6 °F 4.3 °F -5.8 °F 35% 30.18 in 10.0 mi West 12.7 mph 18.4 mph N/A   Clear
7:16 AM 19.4 °F 4.1 °F -4.0 °F 36% 30.17 in 10.0 mi West 18.4 mph - N/A   Clear
7:36 AM 19.4 °F 3.6 °F -4.0 °F 36% 30.17 in 10.0 mi West 19.6 mph 24.2 mph N/A   Clear
7:56 AM 19.4 °F 4.1 °F -4.0 °F 36% 30.17 in 10.0 mi West 18.4 mph 26.5 mph N/A   Clear
8:16 AM 19.4 °F 4.5 °F -5.8 °F 33% 30.16 in 10.0 mi WSW 17.3 mph 23.0 mph N/A   Clear
8:36 AM 21.2 °F 6.4 °F -5.8 °F 30% 30.17 in 10.0 mi WSW 18.4 mph 21.9 mph N/A   Clear
8:56 AM 23.0 °F 8.7 °F -5.8 °F 28% 30.17 in 10.0 mi WSW 18.4 mph 29.9 mph N/A   Clear
9:16 AM 23.0 °F 7.2 °F -5.8 °F 28% 30.16 in 10.0 mi WSW 23.0 mph 31.1 mph N/A   Clear
9:36 AM 23.0 °F 6.3 °F -4.0 °F 31% 30.16 in 7.0 mi WSW 26.5 mph 34.5 mph N/A   Clear
9:56 AM 24.8 °F 7.6 °F -4.0 °F 28% 30.15 in 2.0 mi West 31.1 mph 43.7 mph N/A Snow Light Snow
10:16 AM 26.6 °F 9.3 °F -0.4 °F 31% 30.14 in 4.0 mi West 34.5 mph 41.4 mph N/A   Haze
10:36 AM 26.6 °F 7.5 °F 3.2 °F 37% 30.11 in 1.2 mi West 44.9 mph 54.1 mph N/A Snow Light Snow
10:56 AM 26.6 °F 10.8 °F 3.2 °F 37% 30.14 in 3.0 mi West 27.6 mph 46.0 mph N/A   Haze
11:16 AM 26.6 °F 9.1 °F 5.0 °F 40% 30.12 in 2.5 mi West 35.7 mph 44.9 mph N/A   Haze
11:36 AM 28.4 °F 12.3 °F 5.0 °F 37% 30.11 in 5.0 mi West 32.2 mph 44.9 mph N/A   Haze
11:56 AM 28.4 °F 12.5 °F 5.0 °F 37% 30.10 in 3.0 mi West 31.1 mph 41.4 mph N/A   Haze
12:16 PM 28.4 °F 12.5 °F 6.8 °F 40% 30.10 in 4.0 mi West 31.1 mph 47.2 mph N/A   Haze
12:36 PM 28.4 °F 12.7 °F 6.8 °F 40% 30.10 in 4.0 mi West 29.9 mph 43.7 mph N/A   Haze
12:56 PM 30.2 °F 15.7 °F 6.8 °F 37% 30.09 in 4.0 mi West 27.6 mph 41.4 mph N/A   Haze
1:16 PM 30.2 °F 14.5 °F 6.8 °F 37% 30.09 in 5.0 mi West 33.4 mph 42.6 mph N/A   Haze
1:36 PM 30.2 °F 14.1 °F 6.8 °F 37% 30.08 in 5.0 mi West 35.7 mph 42.6 mph N/A   Haze
1:56 PM 30.2 °F 15.2 °F 8.6 °F 40% 30.07 in 2.5 mi West 29.9 mph 41.4 mph N/A   Haze
2:16 PM 30.2 °F 14.7 °F 5.0 °F 34% 30.06 in 7.0 mi West 32.2 mph 42.6 mph N/A   Clear
2:36 PM 30.2 °F 15.2 °F 5.0 °F 34% 30.06 in 5.0 mi West 29.9 mph 39.1 mph N/A   Haze
2:56 PM 30.2 °F 15.9 °F 6.8 °F 37% 30.05 in 7.0 mi West 26.5 mph 38.0 mph N/A   Mostly Cloudy
3:16 PM 30.2 °F 14.7 °F 5.0 °F 34% 30.05 in 5.0 mi West 32.2 mph 41.4 mph N/A   Haze
3:36 PM 30.2 °F 14.9 °F 5.0 °F 34% 30.05 in 2.0 mi West 31.1 mph 47.2 mph N/A   Haze
3:56 PM 30.2 °F 14.7 °F 8.6 °F 40% 30.04 in 1.5 mi West 32.2 mph 43.7 mph N/A Snow Light Snow
4:16 PM 30.2 °F 14.9 °F 8.6 °F 40% 30.04 in 5.0 mi West 31.1 mph 40.3 mph N/A   Haze
4:36 PM 28.4 °F 13.5 °F 8.6 °F 43% 30.04 in 5.0 mi West 26.5 mph 39.1 mph N/A   Haze
4:56 PM 28.4 °F 14.7 °F 10.4 °F 47% 30.05 in 10.0 mi West 21.9 mph 27.6 mph N/A   Overcast
5:16 PM 28.4 °F 13.5 °F 10.4 °F 47% 30.03 in 10.0 mi West 26.5 mph 39.1 mph N/A   Overcast
5:36 PM 28.4 °F 12.7 °F 12.2 °F 51% 30.03 in 10.0 mi West 29.9 mph 36.8 mph N/A   Overcast
5:56 PM 28.4 °F 13.3 °F 12.2 °F 51% 30.04 in 7.0 mi West 27.6 mph 39.1 mph N/A   Overcast
6:16 PM 26.6 °F 10.6 °F 14.0 °F 59% 30.04 in 3.0 mi West 28.8 mph 36.8 mph N/A Snow Light Snow
6:36 PM 24.8 °F 8.4 °F 17.6 °F 74% 30.05 in 1.5 mi West 27.6 mph 39.1 mph N/A Snow Light Snow
6:56 PM 24.8 °F 9.3 °F 17.6 °F 74% 30.04 in 3.0 mi West 24.2 mph 36.8 mph N/A Snow Light Snow
7:16 PM 26.6 °F 10.6 °F 14.0 °F 59% 30.05 in 10.0 mi West 28.8 mph 38.0 mph N/A   Scattered Clouds
7:36 PM 26.6 °F 10.3 °F 12.2 °F 55% 30.03 in 4.0 mi West 29.9 mph 38.0 mph N/A   Haze
7:56 PM 24.8 °F 11.1 °F 12.2 °F 59% 30.05 in 5.0 mi WSW 18.4 mph 36.8 mph N/A   Haze
8:16 PM 24.8 °F - 12.2 °F 59% 30.06 in 10.0 mi North - - N/A   Scattered Clouds
8:36 PM 24.8 °F 12.9 °F 14.0 °F 64% 30.07 in 10.0 mi West 13.8 mph 17.3 mph N/A   Mostly Cloudy
8:56 PM 24.8 °F 10.7 °F 14.0 °F 64% 30.07 in 10.0 mi West 19.6 mph - N/A   Mostly Cloudy
9:16 PM 24.8 °F 11.9 °F 14.0 °F 64% 30.07 in 10.0 mi West 16.1 mph - N/A   Mostly Cloudy
9:36 PM 24.8 °F 10.3 °F 14.0 °F 64% 30.08 in 10.0 mi West 20.7 mph - N/A   Scattered Clouds
9:56 PM 24.8 °F 9.6 °F 14.0 °F 64% 30.08 in 10.0 mi West 23.0 mph 29.9 mph N/A   Scattered Clouds
10:16 PM 24.8 °F 10.7 °F 14.0 °F 64% 30.09 in 10.0 mi West 19.6 mph 27.6 mph N/A   Scattered Clouds
10:36 PM 23.0 °F 6.6 °F 15.8 °F 74% 30.08 in 10.0 mi West 25.3 mph 32.2 mph N/A   Scattered Clouds
10:56 PM 23.0 °F 6.9 °F 14.0 °F 68% 30.08 in 10.0 mi West 24.2 mph 29.9 mph N/A   Clear
11:16 PM 23.0 °F 6.9 °F 15.8 °F 74% 30.08 in 10.0 mi West 24.2 mph - N/A   Scattered Clouds
11:36 PM 23.0 °F 5.7 °F 17.6 °F 80% 30.07 in 5.0 mi West 28.8 mph 38.0 mph N/A   Haze
11:56 PM 23.0 °F - 17.6 °F 80% 30.07 in 10.0 mi North - - N/A   Mostly Cloudy